Location: Lane
(33.5226°N, 79.8788°W)
Time: 07:51:33
(UTC+00:00)

Tiros 1 despin weight - Pass Details

Date: 12 October 2022
Orbit: 590 x 637 km, 48.2° (Epoch: 28 November)

Event Time Altitude Azimuth Distance (km) Brightness Sun altitude
Rises 01:27:32 0° 293° (WNW) 2,882 ? -33.3°
Reaches altitude 10° 01:30:15 10° 278° (W) 1,983 ? -33.8°
Enters shadow 01:32:23 19° 253° (WSW) 1,494 ? -34.3°
Maximum altitude 01:33:42 21° 229° (SW) 1,395 - -34.5°
Drops below altitude 10° 01:37:10 10° 180° (S) 1,996 - -35.2°
Sets 01:39:56 0° 164° (SSE) 2,906 - -35.8°
